Tracking 29892 objects as of 21-Nov-2024
HD Live streaming from Space Station
objects crossing your sky now

STARLINK-3185

Track STARLINK-3185 now!
10-day predictions
STARLINK-3185 is classified as:


NORAD ID: 51144
Int'l Code: 2022-005AS
Perigee: 545.9 km
Apogee: 547.8 km
Inclination: 53.2 °
Period: 95.4 minutes
Semi major axis: 6917 km
RCS: Unknown
Launch date: January 19, 2022
Source: United States (US)
Launch site: AIR FORCE EASTERN TEST RANGE (AFETR)
Your satellite tracking list
Your tracking list is empty




NASA's NSSDC Master Catalog

Two Line Element Set (TLE):
1 51144U 22005AS  24325.22881373  .00001138  00000-0  89549-4 0  9996
2 51144  53.2178 269.0666 0001346  90.1271 269.9875 15.08843891157110
Source of the keplerian elements: AFSPC